Location: Amsterdam
(30.7274°N, 84.4357°W)
Time: 19:32:21
(UTC+00:00)

Tiros 1 - Pass Details

Date: 25 February 2026
Orbit: 618 x 649 km, 48.4° (Epoch: 10 March)

Event Time Altitude Azimuth Distance (km) Brightness Sun altitude
Rises 15:44:11 0° 323° (NW) 2,904 10.0 40.1°
Reaches altitude 10° 15:47:46 10° 351° (N) 1,989 9.4 40.6°
Maximum altitude 15:49:52 13° 19° (NNE) 1,796 9.3 40.9°
Drops below altitude 10° 15:51:59 10° 47° (NE) 1,981 9.7 41.2°
Sets 15:55:32 0° 76° (ENE) 2,882 10.7 41.7°
